Airfield :
LOGIN :

Register | Disclaimer

   EN    FR    IT 

 










Legend :    VFR   Marginal VFR   IFR   Intensive IFR   Very Intensive IFR
Visi :
Ceiling :
>= 8 km
>= 3000ft
5 to 8 km
1000 to 3000 ft
1500m to 5 km
500 to 1000 ft
800 to 1500m
200 to 500 ft
< 800m
< 200 ft
Symbols :   Thunderstorms  Fog  Heavy snow  Heavy precipitations  Wind > 20 kt
SIGMETs :     Misc.  Thunderstorms  Icing  Turbulence  Mountain Waves  Volcanic Ashes







- Airport Elevation : 112 ft
- IATA code : KIR


EIKY - Kerry Farranfore

CURRENT METAR :
  • 211700Z 23009KT 190V260 9999 SCT035 SCT041 15/08 Q1014

EXPIRED METARs :
  • 211630Z 21009KT 9999 SCT038 15/08 Q1014
  • 211600Z 21009KT 170V240 9999 SCT027 SCT043 14/08 Q1014
  • 211500Z 24012KT 9999 SCT027 SCT042 16/08 Q1013
  • 211430Z 24014KT 9999 SCT024 SCT045 15/08 Q1014

TAF TAF EIKY
Valid from the 21 at 15:00 until the 21 at 21:00 UTC


211400Z 2115/2121 22010KT 9999 FEW018 SCT032
TEMPO 2115/2117 7000 -SHRA SCT018CB
BECMG 2117/2120 18008KT
No reported NOTAMs for that airfield.



MET'MAP, your aeronautical weather chart ! - Copyright ORBIFLY December 2007 - Disclaimer

ORBIFLY MET'MAP TEAM :

Programming & Development : Alexandra Zaïnal
Concept & Development : Baudouin d'Aumeries
Co-Development & Prog : Marc-Olivier Méhu
Technical & hardware support : Manuel Goepfert

Contact : metmap@orbifly.com




SOURCES & CREDITS :

   NOAA